Location: Fisslerhof
(48.9333°N, 9.1333°E)
Time: 09:15:46
(UTC+00:00)

Daily predictions for brighter satellites

Satellite Brightness Start Highest point End
(mag) Time Altitude Azimuth Time Altitude Azimuth Time Altitude Azimuth
Cosmos 1269 Rocket 4.2 16:08:03 10° S 16:13:11 57° ESE 16:18:21 10° NNE
Cosmos 2278 Rocket 3.3 16:10:29 10° SSE 16:15:01 25° ESE 16:19:33 10° NE
SAR-Lupe-5 4.4 16:13:57 10° NNE 16:16:31 54° ESE 16:19:07 10° S
Landsat 7 4.2 16:13:30 10° SE 16:17:48 38° ENE 16:22:07 10° N
Cosmos 1606 4.1 16:18:17 10° SW 16:20:34 25° WNW 16:22:51 10° NNW
SL-16 R/B 2.6 16:15:42 10° NNE 16:22:01 88° ESE 16:28:16 10° SSW
Thor Agena Rocket 3.6 16:17:01 10° SSE 16:22:16 80° ENE 16:27:34 10° NNW
Cosmos 2344 4.3 16:21:16 10° NW 16:28:09 37° NNE 16:36:34 10° E
CZ-4C R/B 3.2 16:26:56 10° W 16:31:11 34° NNW 16:36:34 10° NE
ATLAS 2AS CENTAUR R/B 3.8 16:27:25 10° NW 16:33:02 26° NNE 16:38:09 11° ENE
Cosmos 1844 Rocket 4.5 16:30:18 10° W 16:34:52 25° NW 16:39:29 10° NNE
UNK 3.7 16:30:21 10° NNE 16:34:57 65° ESE 16:39:31 10° S
SAR-Lupe-1 4.1 16:31:54 10° SSE 16:35:22 53° ENE 16:38:54 10° N
YAOGAN 1 3.9 16:32:33 10° ESE 16:35:32 19° ENE 16:38:31 10° NNE
SJ 16-02 3.0 16:35:41 10° SE 16:37:57 14° E 16:39:07 13° ENE
Cosmos 1023 Rocket 4.4 16:33:22 10° SSW 16:38:32 86° ESE 16:43:40 10° NNE
COSMOS 2406 4.1 16:37:18 10° NNW 16:42:06 27° NE 16:46:54 10° ESE
Cosmos 2084 Rocket 3.8 16:38:03 10° WSW 16:42:11 59° NW 16:46:21 10° NE
ATLAS CENTAUR R/B 3.2 16:42:26 10° WNW 16:44:52 18° NNW 16:47:18 10° NNE
SAR-Lupe-4 3.5 16:42:27 10° SSE 16:46:00 84° E 16:49:37 10° NNW
ARIANE 5 R/B 2.4 16:41:40 10° SSE 16:46:38 79° ENE 16:51:39 10° NNW
Cosmos 468 Rocket 4.3 16:41:43 10° NNW 16:46:41 42° ENE 16:51:33 10° SE
Cosmos 1833 Rocket 3.7 16:41:48 10° NW 16:47:17 52° WSW 16:52:43 10° S
Cosmos 1862 4.3 16:44:38 10° NNE 16:47:29 21° ENE 16:50:19 10° ESE
Meteor 2-12 Rocket 4.4 16:46:46 10° N 16:52:53 70° ENE 16:58:56 10° SSE
USA 215 3.6 16:47:09 10° SE 16:53:41 71° SW 17:00:14 10° WNW
Timation 1 Rocket 4.3 16:49:51 10° NNW 16:55:51 77° ENE 17:01:49 10° SE
Cosmos 1536 Rocket 4.3 16:52:55 10° N 16:56:54 31° ENE 17:00:51 10° SE
IRS-P3 4.1 16:52:06 10° SSE 16:57:24 71° ENE 17:02:42 10° NNW
SAR-Lupe-3 3.7 16:55:51 13° NNE 16:58:03 59° ESE 17:00:40 10° S
Okean 2 Rocket 4.2 16:55:34 10° SE 16:58:59 23° E 17:00:34 19° ENE
MOS 1 Rocket 3.2 16:55:20 10° SSE 16:59:32 56° ENE 17:03:59 10° N
ATLAS 5 CENTAUR R/B 3.3 16:57:05 10° NW 17:01:15 39° SW 17:06:19 10° SSE
Timation 2 Rocket 4.2 16:55:04 10° SSW 17:01:50 65° ESE 17:08:37 10° NE
Resurs 01 Rocket 3.4 17:08:57 15° NE 17:08:57 15° NE 17:10:28 10° NNE
SJ-6F 4.2 17:04:08 10° SSE 17:08:03 83° ENE 17:11:59 10° NNW
CZ-4 R/B 4.4 17:05:30 10° SSE 17:09:22 54° ENE 17:13:15 10° N
Cosmos 407 Rocket 3.4 17:04:43 10° SSW 17:09:53 79° ESE 17:15:03 10° NNE
RESURS DK-1 2.4 17:05:53 10° NNW 17:09:54 77° WSW 17:13:53 10° SSE
Cosmos 1602 3.2 17:06:55 10° N 17:09:55 50° ENE 17:12:54 10° SSE
Cosmos 2061 Rocket 4.4 17:04:56 10° SSW 17:11:11 67° W 17:17:26 10° N
Geosat FO 3.8 17:11:38 10° SE 17:14:30 79° ENE 17:17:23 10° NNW
CZ-2D R/B 3.9 17:12:54 10° S 17:15:57 46° W 17:19:01 10° NNW
ISS -3.7 17:12:47 10° WSW 17:16:06 68° SSE 17:17:12 38° E
Cosmos 1869 3.1 17:13:39 10° SSW 17:17:10 76° W 17:20:42 10° N
USA 281 4.1 17:15:07 22° E 17:17:46 28° NE 17:23:13 10° NNW
SPOT 1/Viking Rocket 3.5 17:13:28 10° SSE 17:18:34 65° ENE 17:23:43 10° N
COSMO-SKYMED 1 2.9 17:21:26 30° ENE 17:22:38 37° E 17:26:28 10° SSE
Cosmos 1464 Rocket 4.0 17:18:23 10° S 17:24:31 57° E 17:30:35 10° NNE
SL-12 R/B(2) 4.3 17:20:11 10° SW 17:28:12 85° SE 17:36:59 14° NE
Cosmos 540 Rocket 4.0 17:24:44 10° NNW 17:29:49 62° WSW 17:34:50 10° S
BREEZE-M DEB (TANK) 2.4 17:27:39 10° WSW 17:30:16 76° SSE 17:32:21 32° E
Cosmos 1400 Rocket 2.9 17:27:29 10° S 17:31:08 45° E 17:31:12 45° E
Spot 4 Rocket 3.9 17:27:18 10° SSE 17:32:22 72° ENE 17:37:29 10° NNW
Cosmos 1812 2.4 17:33:41 10° SSW 17:36:34 61° WNW 17:37:34 34° NNW
Cosmos 2034 Rocket 4.1 17:31:51 10° SSE 17:37:45 48° E 17:43:44 10° NNE
Cosmos 2151 Rocket 3.5 17:37:16 10° S 17:41:44 75° E 17:45:29 15° NNE
NOAA 15 4.5 17:37:37 10° SSE 17:42:54 83° ENE 17:48:16 10° NNW
Cosmos 2058 3.1 17:39:01 10° NNW 17:42:58 67° W 17:46:55 10° S
Cosmos 44 Rocket 3.2 17:40:10 10° SW 17:44:57 85° NW 17:47:06 34° NE
SKYMED 2 3.5 17:45:23 13° NNE 17:49:18 83° WNW 17:53:39 10° SSW
Cosmos 1943 Rocket 2.5 17:44:17 10° SW 17:49:51 66° WNW 17:54:09 17° NNE
Helios 1A Rocket 3.2 17:51:57 42° S 17:51:57 42° S 17:54:18 10° S
SJ-7 4.2 17:47:51 10° S 17:51:32 77° WSW 17:55:14 10° NNW
CZ-2D R/B 3.9 17:47:26 10° S 17:51:32 64° WSW 17:55:44 10° NNW
Okean 1 Rocket 3.0 17:47:17 10° S 17:51:38 61° E 17:51:43 61° E
Cosmos 1092 Rocket 4.1 17:45:36 10° N 17:51:40 49° ENE 17:54:58 26° SE
IRAS Rocket 4.3 17:46:19 10° SSE 17:51:53 82° WSW 17:57:27 10° NNW
Sich 1 Rocket 3.5 17:48:11 10° S 17:52:40 64° E 17:53:29 53° NE
PSLV R/B 3.3 17:49:03 10° SSE 17:53:05 85° WSW 17:57:09 10° NNW
Cosmos 2082 Rocket 2.5 17:48:31 10° NNW 17:54:06 67° WSW 17:59:39 10° SSE
Cosmos 1072 Rocket 4.5 17:51:35 10° SSW 17:57:43 80° W 18:03:52 10° N
Cosmos 2026 Rocket 3.9 17:52:13 10° N 17:58:14 60° ENE 18:04:18 10° SSE
Cosmos 2278 Rocket 2.6 17:53:04 10° SW 17:58:40 60° WNW 18:02:47 19° NNE
Meteor 2-1 Rocket 4.3 17:53:01 10° S 17:58:46 58° E 18:02:22 24° NNE
NOAA 6 3.9 17:54:38 10° SSE 17:59:48 81° ENE 18:04:57 10° NNW
Aureole 3 Rocket 4.1 17:58:38 10° SW 18:01:22 30° WNW 18:03:11 18° NNW
BREEZE-M DEB (TANK) 3.3 17:58:59 10° WSW 18:02:02 78° SSE 18:03:16 53° E
BREEZE-M DEB (TANK) 3.3 18:00:10 10° W 18:03:01 74° NNW 18:04:09 51° NE
Geosat 3.8 18:04:10 51° SE 18:05:26 79° ENE 18:10:28 10° NNW
Cosmos 2369 Rocket 4.4 18:04:15 10° SSE 18:04:20 10° SSE 18:04:20 10° SSE
Cosmos 2251 Rocket 3.9 18:04:07 10° SW 18:09:21 63° WNW 18:12:37 23° NNE
YAOGAN 1 3.2 18:06:50 10° S 18:11:01 55° W 18:15:13 10° NNW
Cosmos 371 Rocket 3.1 18:08:03 10° SSW 18:12:51 84° ESE 18:12:52 84° ESE
Cosmos 304 Rocket 3.6 18:09:12 10° SSW 18:13:56 88° ESE 18:13:57 88° E
Cosmos 841 Rocket 3.5 18:09:49 10° NNW 18:15:05 79° WSW 18:17:15 36° SSE
SJ 16-02 1.5 18:11:13 10° SSW 18:15:30 68° WNW 18:15:42 67° NW
CZ-4C R/B 4.0 18:17:10 10° NW 18:21:18 21° N 18:22:36 20° NNE
ATLAS 2AS CENTAUR R/B 2.7 18:18:42 10° NW 18:25:23 56° NE 18:25:35 56° NE
COSMOS 2406 3.4 18:21:13 10° NNW 18:26:52 68° WSW 18:29:08 37° S
Cosmos 1627 Rocket 4.4 18:22:36 10° N 18:28:46 87° W 18:34:57 10° S
Cosmos 1656 Rocket 3.9 18:24:11 10° SSW 18:28:32 55° S 18:28:32 55° S
Okean 2 Rocket 4.3 18:32:34 10° SW 18:36:42 40° WNW 18:37:52 33° NW
Cosmos 676 Rocket 4.4 18:37:54 10° SW 18:43:09 62° WNW 18:43:16 62° WNW
Resurs 01 Rocket 3.7 18:46:23 21° NNW 18:46:23 21° NNW 18:47:51 10° NNW
Cosmos 2344 3.9 18:35:33 10° NW 18:43:30 86° SW 18:47:32 42° SE
Meteor 2-3 Rocket 4.3 18:40:29 10° NNW 18:46:04 56° W 18:49:59 19° SSW
ISS -0.4 18:49:41 10° W 18:50:07 13° W 18:50:07 13° W
USA 281 3.2 19:02:00 78° WNW 19:02:00 78° WNW 19:08:19 10° NNW
Cosmos 1943 Rocket 4.5 19:31:07 10° WNW 19:34:42 17° NW 19:35:40 16° NNW
ATLAS 2AS CENTAUR R/B 4.4 20:09:52 10° NW 20:13:01 26° WNW 20:13:01 26° WNW
